Greenwood, MS

2:00 PM CDT on October 01, 2016 (GMT -0500)
Greenwood-Leflore

Weather History for KGWO - August, 2014

Change the Weather History Date:

Friday, August 29, 2014

  Actual Average Record
Temperature  
Mean Temperature 81 °F 80 °F  
Max Temperature 93 °F 91 °F 102 °F (1951)
Min Temperature 68 °F 68 °F 52 °F (1986)
Degree Days  
Heating Degree Days 0 0  
Month to date heating degree days 0 0  
Since 1 June heating degree days 0 0  
Since 1 July heating degree days 0 0  
Cooling Degree Days 16 15  
Month to date cooling degree days 437 459  
Year to date cooling degree days 1527 1707  
Since 1 June cooling degree days 1233 1377  
Growing Degree Days 30 (Base 50)    
Moisture  
Dew Point 70 °F    
Average Humidity 69    
Maximum Humidity 94    
Minimum Humidity 44    
Precipitation  
Precipitation 0.00 in 0.10 in 3.40 in (2005)
Month to date precipitation 2.26 2.61  
Year to date precipitation 40.00 33.85  
Sea Level Pressure  
Sea Level Pressure 29.96 in    
Wind  
Wind Speed 4 mph (South)    
Max Wind Speed 13 mph    
Max Gust Speed 17 mph    
Visibility 9 miles    
Events      
T = Trace of Precipitation, MM = Missing Value Source: NWS Daily Summary

Daily Weather History Graph

Daily Weather History Graph

Search for Another Location

Airport or City:

Trip Planner

Search our weather history database for the weather conditions in past years. The results will help you decide how hot, cold, wet, or windy it might be!

Date:

Astronomy

Aug. 29, 2014 Rise Set
Actual Time 6:32 AM CDT 7:29 PM CDT
Civil Twilight 6:06 AM CDT 7:54 PM CDT
Nautical Twilight 5:36 AM CDT 8:25 PM CDT
Astronomical Twilight 5:05 AM CDT 8:56 PM CDT
Moon 10:08 AM CDT (8/29) 9:41 PM CDT (8/29)
Length of Visible Light 13h 48m
Length of Day
12h 57m
Waxing Crescent, 15% of the Moon is Illuminated
Aug 29
Waxing Crescent
Sep 2
First Quarter
Sep 8
Full
Sep 15
Last Quarter
Sep 24
New

Hourly Weather History & Observations

Time (CDT) Temp. Heat Index Dew Point Humidity Pressure Visibility Wind Dir Wind Speed Gust Speed Precip Events Conditions
12:53 AM 70.0 °F - 66.9 °F 90% 29.96 in 9.0 mi SSW 3.5 mph - N/A   Clear
1:53 AM 71.1 °F - 66.9 °F 87% 29.96 in 9.0 mi NE 3.5 mph - N/A   Clear
2:53 AM 69.1 °F - 66.9 °F 93% 29.96 in 7.0 mi Calm Calm - N/A   Clear
3:53 AM 69.1 °F - 66.0 °F 90% 29.96 in 7.0 mi Calm Calm - N/A   Clear
4:53 AM 70.0 °F - 66.9 °F 90% 29.96 in 9.0 mi ENE 4.6 mph - N/A   Clear
5:53 AM 69.1 °F - 66.9 °F 93% 29.96 in 7.0 mi Calm Calm - N/A   Clear
6:53 AM 69.1 °F - 66.9 °F 93% 29.98 in 6.0 mi Calm Calm - N/A   Clear
7:53 AM 73.9 °F - 69.1 °F 85% 29.99 in 7.0 mi Calm Calm - N/A   Clear
8:53 AM 79.0 °F - 72.0 °F 79% 29.99 in 10.0 mi Calm Calm - N/A   Clear
9:53 AM 84.0 °F 91.2 °F 73.9 °F 72% 29.99 in 10.0 mi SSW 3.5 mph - N/A   Clear
10:53 AM 87.1 °F 94.5 °F 73.0 °F 63% 29.98 in 10.0 mi Variable 3.5 mph - N/A   Clear
11:53 AM 89.1 °F 96.0 °F 72.0 °F 57% 29.99 in 10.0 mi South 4.6 mph - N/A   Clear
12:53 PM 90.0 °F 95.4 °F 70.0 °F 52% 29.98 in 10.0 mi Variable 3.5 mph - N/A   Scattered Clouds
1:53 PM 91.9 °F 98.4 °F 71.1 °F 50% 29.96 in 10.0 mi SSE 12.7 mph - N/A   Clear
2:53 PM 91.4 °F 96.8 °F 69.8 °F 49% 29.94 in 10.0 mi South 12.7 mph - N/A   Clear
3:53 PM 91.9 °F 95.4 °F 66.9 °F 44% 29.91 in 10.0 mi Variable 6.9 mph - N/A   Clear
4:53 PM 91.9 °F 95.4 °F 66.9 °F 44% 29.93 in 10.0 mi South 8.1 mph - N/A   Clear
5:53 PM 91.0 °F 95.2 °F 68.0 °F 47% 29.92 in 10.0 mi South 9.2 mph - N/A   Clear
6:53 PM 84.0 °F 91.2 °F 73.9 °F 72% 29.92 in 10.0 mi SSW 3.5 mph - N/A   Clear
7:53 PM 79.0 °F - 73.0 °F 82% 29.93 in 10.0 mi Calm Calm - N/A   Clear
8:53 PM 77.0 °F - 72.0 °F 84% 29.94 in 10.0 mi Calm Calm - N/A   Clear
9:53 PM 75.2 °F - 73.4 °F 94% 29.96 in 10.0 mi Calm Calm - N/A   Clear
10:53 PM 77.0 °F - 70.0 °F 79% 29.98 in 10.0 mi South 5.8 mph - N/A   Clear
11:53 PM 77.0 °F - 70.0 °F 79% 30.00 in 10.0 mi SSW 4.6 mph - N/A   Clear